Regional Weather Roundup
Issued by NWS Charleston, SC

Home | Current Version | Previous Version | Text Only | Print | Product List | Glossary On
Versions: 1 2 3 4 5 6 7 8 9 10 11 12 13 14 15 16 17 18 19 20 21 22 23 24 25 26 27 28 29 30 31 32 33 34 35 36 37 38 39 40 41 42 43 44 45 46 47 48 49 50
000
ASUS42 KCHS 182225
RWRCHS

REGIONAL WEATHER ROUNDUP
NATIONAL WEATHER SERVICE CHARLESTON SC
600 PM EDT THU SEP 18 2014

NOTE: "FAIR" INDICATES FEW OR NO CLOUDS BELOW 12,000 FEET WITH NO
SIGNIFICANT WEATHER AND/OR OBSTRUCTIONS TO VISIBILITY.

NOT ALL STATIONS ARE QUALITY CONTROLLED BY THE NATIONAL
WEATHER SERVICE. USE DATA WITH CAUTION...ESPECIALLY
DEWPOINT OBSERVATIONS.

SCZ027-030-031-034>040-042>050-182300-
...SOUTH CAROLINA...

CITY           SKY/WX    TMP DP  RH WIND       PRES   REMARKS
N CHARLESTON   LGT RAIN  77  72  84 CALM      29.93S
WATERFRONT PRK   N/A     81 N/A N/A E6          N/A
FORT JOHNSON   NOT AVBL
MOUNT PLEASANT MOCLDY    81  73  78 CALM      29.94R
JOHNS ISLAND   CLEAR     79  79 100 CALM      29.93S
PINOPOLIS        N/A     84  70  61 N6        29.86R
MONCKS CORNER    N/A     82  72  69 N3        29.93S
SUMMERVILLE    FAIR      82  70  65 E5        29.93F
BEAUFORT MCAS  TSTM      70  68  93 VRB3      29.93R
BEAUFORT ARPT  HVY RAIN  77  73  88 NW14      29.93R
HILTON HEAD IS MOSUNNY   81  73  78 E3        29.92F
GEORGETOWN     NOT AVBL
WALTERBORO     CLEAR     82  64  54 E7        29.93S
ORANGEBURG     SUNNY     81  65  58 E3        29.93S
BARNWELL       HVY RAIN  72  70  94 N24       29.94R
AIKEN          FAIR      79  72  78 E5        29.98S
MANNING        FAIR      82  70  65 CALM      29.93S
KINGSTREE      NOT AVBL
COLUMBIA       MOSUNNY   82  64  54 SE6       29.93S
SUMTER         MOSUNNY   83  65  54 E8        29.93S
FLORENCE       MOSUNNY   80  65  59 E6        29.94S
MYRTLE BEACH   MOSUNNY   79  68  69 SE15      29.95R
N MYRTLE BEACH SUNNY     79  66  64 E9        29.95R

$$

GAZ063-065-086>088-099>101-113>116-118-119-134-136>141-150-182300-
...GEORGIA...

CITY           SKY/WX    TMP DP  RH WIND       PRES   REMARKS
SAVANNAH ARPT  PTSUNNY   83  71  67 S6        29.91F
HUNTER AAF     PTSUNNY   81  72  72 E2        29.90R
FORT STEWART   PTSUNNY   82  70  65 E3        29.90S
STATESBORO     NOT AVBL
SYLVANIA       PTCLDY    87  71  60 CALM      29.92S HX  92
CLAXTON        FAIR      84  73  70 CALM      29.92S HX  91
THOMSON        SUNNY     83  72  70 CALM      29.98S
AUGUSTA-BUSH   LGT RAIN  78  68  71 E8        29.92S
AUGUSTA-DANIEL MOSUNNY   82  68  62 E5        29.94S
SWAINSBORO     FAIR      84  70  61 NW3       29.94S
VIDALIA        MOSUNNY   82  70  65 N3        29.93S
ALMA           SUNNY     84  69  60 N6        29.92R
WAYCROSS       SUNNY     86  73  64 N3        29.90S HX  93
JESUP          FAIR      88  73  62 CALM      29.90S HX  96
BRUNSWICK      MOSUNNY   82  68  61 E8G18     29.91R
SAINT SIMONS   MOSUNNY   83  72  69 E9        29.90S

$$

SCZ027-028-034-036>038-045-046-048>050-GAZ119-141-182300-
...LAKE AND SUPPLEMENTAL COASTAL OBSERVATIONS...

STATION/POSITION TIME  TEMP    WIND        PRES    WAVE   SWELL
                       AIR SEA DIR/SP/G            HT/PER HT/PER/DIR
                 (UTC) (F)     (DEG/KT/KT) (MB)    (FT/S) (FT/S/D)
UPR LAKE MARION  NOT AVBL
WINYAH BAY       2200   80      70/ 11     1013.0S
LAKE MURRAY      2200   82      CALM  /  2 1013.2S
ACE BASIN NERRS  2200   79     150/  1     1013.0S
FORT PULASKI     2200   82     110/  5/  6 1013.2S
SAPELO ISLAND    2200   83      90/  5     1013.0S

$$

ANZ835-935-AMZ111-154-330-350-352-354-374-450-454-472-182300-
...C-MAN AND BUOY OBSERVATIONS...

STATION/POSITION TIME  TEMP    WIND        PRES    WAVE   SWELL
                       AIR SEA DIR/SP/G            HT/PER HT/PER/DIR
                 (UTC) (F)     (DEG/KT/KT) (MB)    (FT/S) (FT/S/D)
FOLLY BEACH CMAN 2200   80      90/  4/  5 1013.8R
BUOY 41004       2200   80 84   60/  8/ 10 1013.0R   3/12   3/12
BUOY 41008       2200   81 85   90/  6/ 10 1012.7R   3/13   3/ 80/13
5E ST. MARYS GA  2200      86                N/A     2/13   2/ 90/13
FRYING PAN BUOY  NOT AVBL
BUOY 41025       2200   74      10/ 17/ 21 1015.1R   5/12   3/ 90/12
CAPE LOOKOUT NC  2200   75      50/ 18/ 20 1015.3R
BUOY 41002       2145   79 83   40/  8/ 10 1014.0R   3/11   3/ 70/11
BUOY 41010       2200   83 85   60/  8/ 10 1012.6R   4/12   3/ 50/12
BUOY 41012       NOT AVBL
ST AUGUSTINE FL  2200   82     110/ 11/ 13 1012.9S
CAPERS NEARSHORE 2100   81      90/  8/ 10   N/A
FRIPP NEARSHORE  NOT AVBL


$$



USA.gov is the U.S. government's official web portal to all federal, state and local government web resources and services.